Hourly Weather Roundup
Issued by NWS Central Illinois

Home | Current Version | Previous Version | Graphics & Text | Print | Product List | Glossary On
Versions: 1 2 3 4 5 6 7 8 9 10 11 12 13 14 15 16 17 18 19 20 21 22 23 24 25 26 27 28 29 30 31 32 33 34 35 36 37 38 39 40 41 42 43 44 45 46 47 48 49 50
000
NZUS43 KILX 262310
HWRILX

AREA WEATHER ROUNDUP
NATIONAL WEATHER SERVICE, LINCOLN IL
600 PM CDT TUE AUG 26 2014


CITY           SKY/WX    TMP DP  RH WIND       PRES   REMARKS
BLOOMINGTON    PTSUNNY   85  68  56 NE14      30.07R HX  88
CHAMPAIGN      FAIR      80  71  74 SE14      30.06S THUNDER HX  84
DECATUR        FAIR      91  77  63 SE7       30.04F HX 104
FLORA          FAIR      89  75  64 SE3       30.05F HX  99
GALESBURG      FAIR      83  71  65 N6        30.08F HX  87
JACKSONVILLE   FAIR      91  78  65 W5        30.05S HX 106
LACON          FAIR      83  71  66 N3        30.05F HX  87
LAWRENCEVILLE  FAIR      90  77  65 E3        30.06R HX 103
LITCHFIELD     FAIR      90  76  63 S6        30.03F HX 101
$$


CITY           SKY/WX    TMP DP  RH WIND       PRES   REMARKS
LINCOLN        FAIR      88  77  69 N6        30.00F HX 100
MACOMB         FAIR      82  72  72 N10       30.08F HX  86
MATTOON        FAIR      77  69  76 SE8       30.09R
MT CARMEL AP   FAIR      93  72  49 E3        30.05S HX 100
OLNEY-NOBLE AP FAIR      90  77  66 CALM      30.06S HX 102
PARIS          TSTM      72  67  82 SW3       30.07F
PEORIA         PTSUNNY   86  73  65 N5        30.05F HX  93
PONTIAC        FAIR      82  77  83 N3        30.07S HX  91
RANTOUL        FAIR      81  70  69 SE7       30.07F HX  84
ROBINSON       LGT RAIN  84  73  69 NE9G21    30.08R HX  89
SPRINGFIELD    FAIR      92  77  61 W3        30.03F HX 105
TAYLORVILLE    FAIR      88  77  70 S5        30.04S HX 100
$$

...REGIONAL REPORTS...


CITY           SKY/WX    TMP DP  RH WIND       PRES   REMARKS
CHICAGO O`HARE PTSUNNY   85  65  51 CALM      30.06F HX  86
KANKAKEE       FAIR      82  74  76 CALM      30.06S HX  88
MOLINE         FAIR      84  63  49 N6        30.08F HX  85
MOUNT VERNON   FAIR      91  75  59 SE6       30.05S HX 102
PITTSFIELD     PTSUNNY   89  76  64 CALM      30.05S HX 100
QUINCY         PTSUNNY   87  74  64 N9        30.05F HX  95
ROCKFORD       FAIR      80  62  54 N3        30.10F HX  81
$$


CITY           SKY/WX    TMP DP  RH WIND       PRES   REMARKS
BURLINGTON     FAIR      82  70  66 NE9       30.08S HX  86
CEDAR RAPIDS   FAIR      79  65  62 NW5       30.11S HX  81
DES MOINES     PTSUNNY   79  63  57 E3        30.10F HX  80
KIRKSVILLE     FAIR      82  71  69 N9        30.08F HX  86
OTTUMWA        FAIR      81  66  60 N7        30.10R HX  83
ST LOUIS       TSTM      83  68  60 SE8       30.04S HX  86
$$


CITY           SKY/WX    TMP DP  RH WIND       PRES   REMARKS
TERRE HAUTE    FAIR      76  71  85 W3        30.08F
EVANSVILLE     FAIR      89  73  59 E6        30.05F HX  97
INDIANAPOLIS   PTSUNNY   78  68  71 VRB3      30.08F HX  80
LAFAYETTE      FAIR      74  68  81 CALM      30.05F
MADISON        FAIR      77  58  51 N5        30.11F
MILWAUKEE      PTSUNNY   78  60  53 NW7       30.07F
$$





USA.gov is the U.S. government's official web portal to all federal, state and local government web resources and services.